Lapse_Rate
5.8 5.6 5.6 5.6 5.5 5.4 5.4 5.4 5.3 5.4 4.9 4.8 5.1 5.2 5.3 5.3 5.2 5.1 4.9 4.8 4.6 4.5 4.1 3.4 3.1 3.0 2.9 3.0 2.5 2.3 2.2 2.3 1.8 1.9 1.9 2.2 2.4 2.7 3.2 3.9 5.1 5.0 5.9 3.4
5.9 5.8 5.6 5.5 5.4 5.4 5.5 5.4 5.3 5.1 4.9 4.5 5.2 5.2 5.0 4.9 4.8 4.9 4.7 4.4 4.2 4.0 3.5 3.2 2.8 2.5 2.8 2.5 2.3 2.3 2.4 1.9 2.0 2.4 2.2 2.7 2.4 2.8 4.0 5.1 5.8 5.1 7.2 6.3
5.9 5.8 5.9 5.6 5.5 5.4 5.7 5.6 5.3 5.4 5.2 5.1 4.9 4.9 4.6 4.5 4.5 4.4 4.2 4.1 3.9 3.7 3.2 3.0 3.0 2.6 2.3 2.1 2.1 2.1 2.0 1.7 1.8 2.3 3.0 3.7 3.0 3.7 4.7 5.9 6.1 6.5 6.8 7.3
5.8 5.8 5.5 5.7 5.6 5.6 5.7 5.6 5.6 5.3 4.2 4.6 4.6 4.6 4.4 4.3 4.3 4.0 3.9 3.6 3.9 3.3 2.7 3.1 2.9 2.4 2.2 2.0 2.0 2.1 2.0 1.7 2.7 2.1 2.9 3.3 3.5 4.0 5.4 5.7 6.3 7.2 7.2 8.0
5.6 5.8 5.8 6.2 5.9 6.0 5.6 5.5 5.5 5.4 5.0 3.6 3.9 3.8 3.5 3.8 3.6 3.4 3.4 3.6 3.2 3.0 3.1 3.0 2.3 2.1 1.5 1.2 1.7 2.4 2.8 1.9 3.3 1.7 3.9 4.6 4.4 5.0 5.4 6.2 6.3 7.0 8.0 8.2
5.8 5.8 5.9 5.9 5.8 5.8 5.7 5.5 5.3 5.1 4.3 3.8 3.6 3.8 3.7 3.5 3.4 3.0 3.3 3.1 3.0 2.9 2.8 2.2 1.9 1.6 1.5 1.6 1.4 1.6 1.8 2.6 3.4 2.5 4.6 5.2 4.8 5.8 6.7 6.8 7.2 7.5 7.8 7.9
6.1 5.9 6.2 6.1 6.1 5.8 5.6 5.3 5.0 4.9 4.1 4.0 3.8 3.6 3.5 3.2 3.0 3.1 2.9 2.8 2.5 2.3 2.1 1.9 1.6 1.6 1.6 1.5 1.9 2.1 2.5 3.4 4.1 4.5 5.4 5.7 6.1 6.3 6.8 7.3 7.5 7.8 7.7 7.6
6.2 6.4 6.1 6.2 6.1 5.6 5.4 4.6 4.6 3.8 3.5 3.5 3.4 3.5 2.6 2.5 3.0 2.9 2.7 2.6 2.2 1.9 1.5 1.3 1.0 1.0 0.8 1.4 1.9 3.1 3.9 4.5 4.9 5.5 6.5 6.9 6.5 6.7 7.0 7.3 7.3 7.6 7.6 7.3
6.4 6.4 6.5 5.7 5.2 4.8 4.6 4.3 4.0 3.8 3.5 3.5 3.3 2.8 2.8 3.0 2.9 2.6 2.4 2.0 1.6 1.4 1.3 0.8 1.0 1.6 1.6 2.3 2.9 3.8 4.6 5.2 5.4 6.3 7.0 7.1 6.7 7.2 7.2 6.7 6.3 6.8 6.8 7.0
6.2 5.6 4.8 4.5 4.2 3.7 3.7 3.9 3.8 3.5 3.2 2.5 2.5 2.9 2.8 2.7 2.5 2.0 1.8 1.6 1.5 1.4 1.2 1.3 1.8 2.5 2.7 3.3 3.8 4.4 4.9 5.5 5.7 6.5 7.2 7.4 7.5 7.2 6.8 6.2 6.4 6.5 6.7 6.7
4.8 4.2 4.0 3.9 3.8 4.3 4.3 3.5 3.6 3.2 2.6 2.7 2.6 2.5 2.7 2.3 1.9 1.6 1.3 1.3 1.2 1.2 1.6 1.9 2.7 3.0 3.7 4.2 4.6 4.8 5.2 5.6 6.0 6.4 6.5 7.4 7.2 7.1 7.0 6.8 6.7 6.6 6.6 6.6
4.1 4.0 4.0 4.4 4.2 3.9 3.4 3.3 3.1 3.2 3.0 2.8 2.5 2.4 1.9 1.6 1.4 1.3 1.1 1.1 1.1 1.7 2.3 2.8 3.3 3.9 4.3 4.6 5.0 5.6 5.5 6.2 6.4 6.9 7.4 7.6 7.5 7.3 7.1 6.9 6.7 6.6 6.7 6.7
4.1 4.6 4.3 3.5 3.4 3.2 2.6 2.9 3.2 3.3 2.9 2.3 1.8 1.3 1.2 0.9 0.9 0.8 1.1 1.4 2.0 2.7 3.1 3.6 4.1 4.4 4.8 5.1 5.5 6.1 6.4 6.9 6.6 7.1 7.5 7.4 7.1 7.1 7.0 6.9 6.8 6.7 6.7 6.8
4.3 3.8 3.2 3.0 3.2 3.1 2.9 3.2 2.9 2.5 2.2 1.7 1.5 1.0 1.0 0.7 0.9 1.3 1.8 2.4 3.1 3.5 3.9 4.1 4.5 5.0 5.4 5.5 6.0 6.3 6.8 6.7 6.9 7.1 7.1 7.1 6.9 6.8 6.8 6.6 6.6 6.7 6.7 6.7
3.2 2.9 3.2 3.2 2.9 2.8 2.7 2.4 2.2 2.1 2.3 1.8 1.1 0.7 0.9 1.2 1.7 2.3 2.9 3.3 3.7 4.1 4.5 4.9 5.2 5.6 5.7 6.0 6.1 6.6 6.9 6.7 6.4 6.6 6.8 6.9 6.8 6.6 6.5 6.7 6.6 6.6 6.8 6.8
3.0 3.0 2.8 2.9 2.9 2.7 2.6 2.3 1.8 1.7 1.7 1.5 1.4 1.3 1.8 2.3 2.7 3.1 3.5 3.9 4.4 4.8 5.1 5.3 5.5 5.8 5.7 5.7 6.0 6.6 6.4 6.4 6.5 6.7 6.6 6.8 6.8 6.8 6.6 6.9 6.8 6.7 6.9 6.8
2.9 2.9 2.8 2.6 2.5 2.3 2.2 2.0 1.9 1.6 1.8 2.2 2.4 2.5 2.7 3.0 3.3 3.7 4.2 4.6 4.9 5.2 5.3 5.4 5.5 5.5 5.5 5.7 5.8 6.0 6.0 6.2 6.2 6.3 6.5 6.9 6.4 6.7 6.4 6.2 6.5 6.6 6.6 6.5
2.9 2.7 2.4 2.2 2.3 2.3 2.5 2.4 2.4 2.7 3.3 3.4 3.0 3.0 3.3 3.5 4.0 4.2 4.5 4.8 5.0 5.2 5.2 5.3 5.4 5.5 5.5 5.5 5.6 5.8 5.9 5.9 5.7 5.7 5.7 5.8 6.2 6.3 6.2 6.1 6.1 6.3 6.5 6.4
2.3 2.3 2.5 2.7 2.7 3.0 3.1 3.3 3.4 3.5 3.8 3.7 3.4 3.7 3.8 4.1 4.4 4.6 4.8 4.8 4.8 5.0 5.3 5.5 5.6 5.5 5.4 5.4 5.5 5.5 5.4 5.5 5.7 5.8 5.6 5.3 5.4 5.6 5.7 5.7 5.7 5.6 5.9 6.0
2.8 3.0 3.2 3.3 3.4 3.5 3.7 3.4 3.8 4.0 4.4 3.8 3.8 4.0 4.1 4.3 4.5 4.7 4.7 4.9 5.1 5.3 5.5 5.8 5.6 5.5 5.5 5.5 5.3 5.3 5.4 5.4 5.3 5.5 5.8 5.5 5.6 5.5 5.5 5.6 5.5 5.5 5.6 5.8
3.6 3.9 4.2 4.0 4.0 4.2 4.3 4.5 4.6 4.5 4.3 4.1 4.2 4.3 4.4 4.5 4.6 4.7 4.8 5.1 5.2 5.2 5.4 5.5 5.6 5.7 5.4 5.3 5.2 5.0 5.0 5.0 5.1 5.0 5.3 5.3 5.3 5.5 5.6 5.8 5.7 5.6 5.6 5.7
4.6 4.8 4.6 4.8 4.9 5.1 5.1 4.8 4.5 4.4 4.4 4.4 4.6 4.6 4.7 4.8 4.8 4.8 4.8 4.8 5.0 5.2 5.3 5.3 5.7 5.7 5.4 5.5 5.6 5.5 5.2 5.1 5.2 5.0 5.0 5.1 5.2 5.2 5.2 5.3 5.4 5.4 5.5 5.6
5.1 5.5 5.6 5.4 5.4 5.2 5.0 4.5 4.6 4.6 4.6 4.9 4.9 4.9 4.9 5.0 4.8 4.8 4.9 5.0 5.2 5.2 5.4 5.8 5.7 5.5 5.5 5.5 5.7 5.9 5.5 5.4 5.4 5.4 5.2 5.2 5.2 5.2 5.0 5.1 5.2 5.2 5.4 5.4
6.0 5.7 5.2 5.0 5.2 4.7 4.8 4.9 4.9 5.0 5.2 5.5 5.4 5.4 5.3 5.4 5.1 5.0 5.0 5.3 5.1 5.5 5.3 5.5 5.3 5.5 5.7 5.7 5.6 5.7 5.9 5.8 5.6 5.5 5.6 5.5 5.4 5.5 5.4 5.1 5.1 5.1 5.3 5.4
6.1 5.6 4.7 4.9 5.1 5.3 5.5 5.6 5.7 5.8 5.8 6.0 6.0 5.8 5.6 5.4 5.0 5.2 5.2 5.4 5.7 5.8 5.6 5.8 5.8 5.9 5.9 6.0 5.9 5.8 5.8 5.8 5.8 5.6 5.6 5.6 5.6 5.6 5.8 5.4 5.3 5.2 5.3 5.4
5.7 5.1 5.5 5.9 6.2 6.2 6.3 6.4 6.5 6.7 6.7 6.6 6.1 5.6 5.5 5.5 5.6 5.5 5.7 5.5 5.6 5.4 5.5 5.5 5.5 5.7 5.7 5.8 5.9 5.8 5.7 5.6 5.6 5.6 5.5 5.5 5.5 5.5 5.7 5.7 5.4 5.4 5.4 5.5
5.4 5.7 6.2 6.2 6.3 6.5 6.5 6.6 6.7 6.7 6.6 6.3 5.8 5.6 6.0 5.4 5.9 5.5 5.3 4.9 5.4 5.7 6.0 5.8 5.6 5.6 5.6 5.6 5.7 5.5 5.5 5.4 5.3 5.4 5.4 5.4 5.3 5.4 5.4 5.7 5.6 5.6 5.5 5.5
Wind_Speed
27 23 17 12 9 9 5 2 3 3 3 2 1 2 3 2 4 1 2 1 4 5 7 5 7 7 3 7 9 5 2 2 8 13 3 2 2 11 15 10 11 9 11 16
30 26 23 18 14 10 4 3 1 1 1 4 4 2 2 2 4 4 5 5 4 3 6 4 8 5 2 9 8 6 7 4 6 6 2 1 6 6 7 7 6 19 16 15
33 28 24 18 11 10 2 3 2 1 1 0 3 5 4 4 2 3 3 3 4 4 6 6 3 7 4 9 6 5 9 7 12 17 19 12 10 12 10 13 13 17 18 21
34 31 28 25 21 11 3 2 1 1 2 4 3 2 6 5 5 3 5 3 9 7 6 5 8 7 4 6 6 10 7 17 18 25 23 22 23 21 19 17 20 20 21 19
33 29 27 25 22 18 3 5 3 1 3 2 4 3 5 8 3 6 5 5 7 7 5 7 6 7 9 13 8 10 8 15 16 25 22 25 27 22 22 23 21 21 20 21
32 29 25 22 22 9 3 2 1 1 4 4 2 3 3 5 5 2 1 2 3 6 8 6 7 8 9 11 10 15 15 14 14 23 20 16 17 11 6 6 3 4 11 7
31 28 22 19 17 7 3 2 2 3 3 6 5 3 4 5 5 2 4 2 2 1 2 4 5 8 12 14 16 13 13 15 13 16 17 21 4 6 5 5 2 3 1 4
31 27 23 21 17 11 3 2 3 2 3 3 6 4 2 3 3 1 1 2 3 0 1 3 6 4 4 3 1 2 7 10 8 11 13 10 4 5 5 5 1 4 2 4
33 27 24 22 19 19 8 4 2 3 4 3 4 2 2 2 2 3 3 3 1 1 2 3 4 4 4 3 2 2 3 2 6 10 13 18 5 7 5 4 5 3 4 6
30 25 21 17 21 17 9 4 4 4 4 5 5 3 2 2 2 1 1 4 1 2 3 5 6 7 1 4 3 3 4 2 4 8 9 3 7 9 4 4 3 8 7 7
27 23 18 18 23 19 9 5 8 4 4 9 9 5 4 2 2 1 3 2 1 2 3 3 3 3 2 2 0 1 2 3 2 2 4 6 10 2 3 6 7 8 8 8
22 19 15 20 21 21 11 4 14 18 6 6 12 13 11 5 4 3 2 2 1 2 2 2 2 3 2 0 6 2 2 2 3 4 3 2 3 1 3 5 8 7 9 10
20 16 21 22 21 12 14 6 4 5 5 5 4 5 8 17 6 2 2 1 2 2 2 1 1 2 2 3 1 2 3 2 3 4 4 4 6 0 6 7 9 9 11 11
18 23 31 28 25 24 18 5 3 5 5 4 5 3 5 8 11 7 2 2 2 2 2 2 2 1 3 1 2 2 1 3 2 5 2 8 2 5 9 10 10 11 12 13
34 32 32 32 34 34 29 20 14 10 3 4 5 4 9 7 7 11 10 6 3 2 2 3 2 2 1 2 1 1 1 1 2 3 2 5 10 9 12 12 12 13 13 14
36 35 33 27 16 7 4 3 8 18 4 4 3 3 9 11 7 9 10 6 5 3 3 3 2 2 0 1 2 1 3 5 7 5 5 10 12 11 10 8 13 14 12 13
34 33 33 34 35 26 6 3 4 8 3 3 4 2 5 10 3 2 4 7 4 3 2 3 2 3 2 0 2 2 6 7 9 9 7 9 8 10 11 13 14 15 11 12
38 36 34 29 25 16 10 23 15 10 6 5 3 2 1 9 4 4 5 3 3 5 2 1 2 1 1 2 4 6 7 9 11 6 7 9 12 12 13 11 10 12 12 12
34 25 17 12 8 4 3 8 18 24 6 4 4 4 3 8 5 4 3 3 3 1 2 2 2 1 1 3 6 7 9 6 11 12 12 13 13 14 14 13 14 14 14 13
14 8 4 4 3 9 7 5 5 6 5 5 3 4 3 5 5 4 3 2 2 1 3 3 1 2 3 6 8 8 9 10 9 11 14 15 17 15 16 15 13 13 14 14
3 3 3 2 7 3 4 4 6 5 5 4 3 3 4 4 3 3 3 2 2 1 2 3 1 3 4 6 8 9 10 12 13 14 15 16 17 16 16 18 17 16 17 15
8 13 8 3 6 5 8 4 4 6 3 4 4 4 3 3 2 2 3 2 1 1 4 2 2 3 6 6 10 12 13 14 15 15 17 18 18 17 17 17 17 18 18 17
5 5 5 5 6 12 7 6 3 2 4 3 5 4 3 3 2 1 2 2 1 3 1 2 4 3 7 9 11 16 15 15 16 18 18 18 19 19 18 17 17 18 17 16
6 5 8 5 5 4 1 1 2 3 3 6 6 2 2 2 2 1 2 1 2 2 2 4 2 6 11 14 13 14 17 17 18 19 18 19 19 17 18 17 16 16 15 17
5 5 6 5 0 1 1 2 3 2 3 4 2 1 2 2 1 2 2 2 3 3 4 4 6 15 16 16 15 15 16 15 15 15 15 16 16 15 17 16 15 15 16 16
4 7 4 2 0 2 2 1 2 1 3 1 0 1 2 4 1 2 1 1 3 3 4 10 14 17 17 16 16 16 16 16 16 15 16 16 16 16 16 16 15 15 15 15
5 4 3 2 1 2 2 2 3 2 1 1 0 4 2 2 2 2 3 4 5 11 14 12 16 17 18 17 16 16 16 17 17 16 16 16 16 15 15 16 16 14 14 13
Wind_Direction
200 188 181 183 166 145 96 78 270 2 335 177 207 214 191 139 157 137 179 183 224 209 179 203 219 222 232 160 153 172 150 239 255 256 102 355 312 252 236 238 240 243 273 266
196 190 179 175 161 181 129 144 272 48 322 227 207 142 180 207 166 203 178 186 215 179 185 233 214 197 123 160 169 188 170 210 286 243 159 167 234 211 231 257 270 259 263 272
193 186 174 161 157 158 76 107 246 119 112 321 180 166 193 191 210 181 180 148 142 165 203 223 236 202 192 187 219 190 178 224 237 259 274 297 253 235 222 231 254 263 251 266
189 181 169 161 146 140 98 81 203 33 213 209 157 169 164 175 198 199 195 185 215 186 208 220 231 235 251 213 226 249 261 261 261 262 266 269 269 261 254 230 250 250 264 266
182 172 166 154 140 123 89 140 168 164 114 108 140 186 206 205 185 168 211 223 198 187 209 229 247 261 260 265 264 256 241 270 273 274 276 273 271 260 254 253 253 268 263 269
170 162 154 149 145 127 125 136 109 200 139 116 148 211 185 208 180 148 81 177 197 218 249 262 270 264 261 255 248 260 259 268 270 272 283 289 284 286 299 318 20 321 270 326
156 142 146 142 138 122 82 107 124 98 179 181 196 200 196 186 193 141 128 115 169 52 353 286 255 251 255 253 252 246 264 265 270 274 283 265 342 40 13 297 32 352 351 16
140 142 143 131 123 127 93 110 109 136 126 149 144 124 116 97 54 67 302 63 47 4 331 281 292 242 241 239 51 281 251 257 263 261 263 279 145 26 17 5 24 15 358 351
137 141 136 132 130 121 94 79 75 94 131 58 348 99 39 140 135 151 117 72 2 205 246 248 255 269 339 267 256 72 49 23 264 280 282 277 47 346 333 308 249 42 350 336
132 131 133 146 136 126 101 71 12 97 98 27 357 86 76 42 50 64 54 360 21 353 234 249 264 266 39 256 252 336 313 331 268 279 279 101 357 324 306 228 24 330 341 332
128 130 142 151 130 120 86 67 17 105 91 41 42 45 57 70 20 341 27 241 123 219 228 249 238 248 175 227 134 274 288 301 265 236 251 246 2 138 305 349 321 330 328 325
127 132 144 130 126 124 108 88 66 73 79 108 94 73 51 34 32 352 8 17 327 9 262 214 258 231 213 270 282 164 236 295 310 243 337 16 354 358 333 320 313 320 315 314
127 148 136 128 123 111 108 105 103 78 107 86 60 26 21 31 20 317 300 113 335 77 352 12 62 217 292 248 184 133 167 83 246 313 179 270 295 339 329 328 306 313 309 315
134 121 102 101 99 97 97 84 20 83 106 100 48 50 35 8 30 33 344 296 284 74 27 64 58 127 356 64 48 275 12 316 305 266 278 313 207 327 325 314 303 305 310 308
111 104 103 106 106 99 88 76 48 44 88 109 121 90 21 18 30 42 42 56 65 47 77 56 67 71 77 67 116 204 345 283 262 290 318 272 284 305 307 300 294 305 305 303
100 102 106 105 95 79 71 77 38 20 51 104 103 121 23 12 18 47 44 49 53 67 68 67 60 2 333 203 246 173 247 252 252 270 286 281 282 291 283 279 293 291 287 283
100 98 90 83 77 67 52 38 321 358 42 91 112 91 23 349 338 29 28 42 56 61 75 56 42 26 30 152 256 307 302 288 283 273 283 272 262 286 296 288 280 280 281 276
104 97 90 84 82 73 46 35 44 73 87 52 71 13 53 5 7 14 7 30 39 35 78 84 30 60 1 256 255 283 280 289 284 264 223 261 281 287 280 271 275 281 281 283
107 101 89 61 41 47 22 34 42 52 59 92 65 9 349 347 21 19 357 354 63 50 55 39 294 320 261 255 281 280 284 267 281 291 286 280 271 274 277 282 284 282 281 281
95 52 45 62 28 339 9 15 26 28 27 42 64 352 356 346 343 3 340 19 37 46 47 314 4 264 269 253 236 249 268 271 274 285 292 295 289 288 289 285 280 276 278 280
47 62 67 43 351 48 40 54 39 360 47 22 10 15 337 12 347 344 26 358 1 8 23 323 306 255 235 236 240 251 257 269 268 253 262 273 275 278 282 286 285 283 283 281
91 106 87 60 28 44 67 32 16 37 40 356 349 342 325 320 333 313 21 1 344 320 333 296 256 246 244 255 255 264 279 281 279 277 278 281 282 281 280 280 282 282 283 284
67 54 55 22 340 45 46 7 18 20 354 19 342 326 344 320 15 57 340 3 360 303 304 267 247 277 271 270 287 297 296 288 284 286 285 283 283 283 280 279 278 280 281 280
56 47 37 51 22 56 70 236 275 295 288 324 329 288 333 346 352 342 342 44 279 295 293 246 249 263 297 308 302 300 299 297 292 291 289 287 284 282 283 280 278 278 276 278
67 48 51 55 50 273 285 285 289 263 312 321 288 241 323 9 28 22 295 324 319 238 256 279 309 310 307 304 305 301 298 296 291 288 285 282 282 280 280 280 279 275 274 274
74 50 75 82 73 7 337 302 284 291 319 199 231 351 40 48 341 338 55 327 250 277 266 300 307 305 303 302 301 300 297 294 291 288 286 284 283 280 280 283 279 274 272 271
55 40 30 63 109 265 287 283 303 318 292 20 316 44 343 282 295 289 190 230 273 301 300 298 295 297 302 302 299 298 297 296 294 292 289 286 286 286 282 281 281 278 272 266